Regional Weather Roundup
Issued by NWS Newport/Morehead, NC

Current Version | Previous Version | Text Only | Print | Product List | Glossary On
Versions: 1 2 3 4 5 6 7 8 9 10 11 12 13 14 15 16 17 18 19 20 21 22 23 24 25 26 27 28 29 30 31 32 33 34 35 36 37 38 39 40 41 42 43 44 45 46 47 48 49 50
542 ASUS42 KMHX 262313 RWRMHX WEATHER ROUNDUP FOR EASTERN NORTH CAROLINA NATIONAL WEATHER SERVICE NEWPORT/MOREHEAD CITY NC 700 PM EDT FRI MAY 26 2017 NOTE: "FAIR" INDICATES FEW OR NO CLOUDS BELOW 12,000 FEET WITH NO SIGNIFICANT WEATHER AND/OR OBSTRUCTIONS TO VISIBILITY NCZ015>017-031-032-045>047-102-103-270000- NORTH COAST CITY SKY/WX TMP DP RH WIND PRES REMARKS EDENTON SUNNY 80 58 46 W8 29.87R ELIZABETH CITY SUNNY 77 58 51 W9 29.86R KITTY HAWK CLEAR 76 58 52 W5 29.85S MANTEO SUNNY 76 58 52 NW7 29.87S $$ NCZ045>047-081-094-103-104-270000- CENTRAL COAST CITY SKY/WX TMP DP RH WIND PRES REMARKS FRISCO SUNNY 78 61 55 W8 29.88R $$ NCZ095-097-098-100-101-270000- SOUTHERN COAST CITY SKY/WX TMP DP RH WIND PRES REMARKS BEAUFORT SUNNY 76 67 73 SW15 29.89R CEDAR ISLAND NOT AVBL JACKSONVILLE SUNNY 82 56 40 W9 29.88S PINEY ISLAND CLEAR N/A N/A N/A W8 29.88R WILMINGTON SUNNY 81 58 45 SW7 29.90S $$ NCZ011>013-027>030-043-044-078>080-089-090>093-098-270000- COASTAL PLAIN CITY SKY/WX TMP DP RH WIND PRES REMARKS AHOSKIE NOT AVBL CLINTON SUNNY 82 56 40 SW7 29.90S ELIZABETHTOWN SUNNY 82 53 35 W7 29.91R GOLDSBORO SUNNY 81 55 40 W8 29.88S GREENVILLE SUNNY 81 55 41 W3 29.91R HAVELOCK MOSUNNY 82 54 37 NW9 29.89R KENANSVILLE SUNNY 81 55 41 W7 29.90R KINSTON SUNNY 81 54 39 CALM 29.90R NEW BERN SUNNY 80 56 43 NW9 29.89S RICHLANDS SUNNY 82 56 40 W6 29.89S ROCKY MOUNT SUNNY 79 57 46 W9 29.89R WASHINGTON SUNNY 79 56 45 W6 29.88S WHITEVILLE SUNNY 82 55 40 SW3 29.91S $$ AMZ130-135-150-152-154-156-158-170-250-252-270-ANZ085-086-088-633-658-670-270000- MARINE OBSERVATIONS STATION/POSITION TIME TEMP WIND PRES WAVE SWELL AIR SEA DIR/SP/G HT/PER HT/PER (UTC) (F) (DEG/KT/KT) (MB) (FT/S) (FT/S) CHESAPEAKE LIGHT NOT AVBL 64 E VA BEACH 2250 65 63 210/ 6/ 8 1010.8 4/ 8 3/ 8 DUCK 2248 77 62 270/ 10/ 14 1010.5 2 E DUCK 2300 64 N/A 2/ 8 OREGON INLET 2248 290/ 12/ 16 1011.1 13E OREGON INLT 2248 65 N/A 3/ 8 2/ 8 HATTERAS CG 2248 77 73 270/ 10/ 12 1011.7 DIAMOND BUOY 2250 76 80 250/ 17/ 21 1011.9 6/ 7 CAPE LOOKOUT 2300 75 230/ 13/ 16 1012.0 BEAUFORT LAB 2248 76 72 230/ 6/ 12 1011.4 30 SE NEW RVR IN 2208 76 78 250/ 19/ 25 1012.5 30 SE NEW RVR IN 2243 78 N/A 6/ 5 27 SE WRIGHTSVLE NOT AVBL 5 SE WRIGHTSVLE 2208 75 74 220/ 16/ 25 1012.7 225 S CAPE HAT 2250 77 77 250/ 12/ 14 1015.3 5/ 7 3/ 7 41 SE CHARLESTON 2250 74 75 230/ 16/ 19 1014.1 3/ 4 2/ 8 $$

USA.gov is the U.S. government's official web portal to all federal, state and local government web resources and services.